Location: Debolt
(55.2626°N, 118.0981°W)
Time: 09:11:52
(UTC+00:00)

BEESAT 2 - Visible Passes

Search period start: 08 December 2023 00:00
Search period end: 18 December 2023 00:00
Orbit: 354 x 378 km, 64.9° (Epoch: 07 December)

Date Brightness Start Highest point End Pass type
(mag) Time Alt. Az. Time Alt. Az. Time Alt. Az.
08 Dec ? 13:31:11 47° NE 13:31:11 47° NE 13:33:32 10° NE visible
08 Dec ? 15:03:07 11° WNW 15:05:18 20° NNW 15:07:42 10° NNE visible
09 Dec ? 12:29:54 11° ENE 12:29:54 11° ENE 12:29:59 10° ENE visible
09 Dec ? 14:01:48 32° NNW 14:01:48 32° NNW 14:04:23 10° NE visible
10 Dec ? 13:00:09 15° NE 13:00:09 15° NE 13:00:49 10° NE visible
10 Dec ? 14:32:02 19° NW 14:32:35 20° NNW 14:34:57 10° NNE visible
11 Dec ? 13:30:04 18° NNE 13:30:04 18° NNE 13:31:10 10° NE visible
11 Dec ? 15:01:56 11° NW 15:03:32 15° N 15:05:24 10° NNE visible
12 Dec ? 13:59:40 18° N 13:59:40 18° N 14:01:13 10° NNE visible
13 Dec ? 14:28:58 14° NNW 14:29:21 15° N 14:31:11 10° NNE visible
14 Dec ? 13:26:10 12° NNE 13:26:10 12° NNE 13:26:32 10° NNE visible
14 Dec ? 14:57:59 10° NNW 14:59:34 14° N 15:01:17 10° NE visible
15 Dec ? 13:54:55 14° N 13:54:55 14° N 13:56:00 10° NNE visible
15 Dec ? 15:27:28 10° NNW 15:29:31 16° NNE 15:31:34 10° ENE visible
16 Dec ? 14:23:23 13° N 14:23:55 14° N 14:25:36 10° NE visible
17 Dec ? 13:19:51 10° NNE 13:19:51 10° NNE 13:19:51 10° NNE visible
17 Dec ? 14:51:36 11° NNW 14:53:22 16° NNE 14:55:22 10° ENE visible
